period_start,C,m1,H,J0,J1,J2,J3,J4,J5,JA,JB,JC,JD,JJ,JK,JN,#
2014-11-20 00:01:34,0.15,2.12,0.00,21.30,25.60,28.59,4.82,26.41,1022.72,2037.30,2653.59,2750.12,2975.92,349.75,351.32,17.84,0000 0000 0000 0000 000000
2014-11-20 00:06:36,0.15,2.13,0.00,21.29,25.60,28.59,4.87,26.54,1022.52,2037.24,2651.89,2748.96,2974.58,349.87,351.51,17.87,0000 0000 0000 0000 000000
2014-11-20 00:11:37,0.22,2.13,0.00,21.27,25.60,28.58,4.85,26.45,1022.50,2037.36,2650.15,2747.74,2973.29,350.51,352.11,17.90,0000 0000 0000 0000 000000
2014-11-20 00:16:38,0.18,2.14,0.00,21.27,25.60,28.58,4.81,26.39,1022.50,2037.29,2648.15,2746.39,2971.81,350.17,351.92,17.93,0000 0000 0000 0000 000000
2014-11-20 00:21:39,0.19,2.15,0.00,21.26,25.60,28.56,4.81,26.28,1022.51,2037.38,2646.25,2744.99,2970.52,350.22,352.19,17.96,0000 0000 0000 0000 000000
2014-11-20 00:26:40,0.21,2.15,0.00,21.27,25.60,28.55,4.85,26.40,1022.52,2037.38,2644.55,2743.71,2968.96,350.53,352.35,17.99,0000 0000 0000 0000 000000
2014-11-20 00:31:41,0.14,2.16,0.00,21.27,25.60,28.55,4.80,26.40,1022.56,2037.40,2643.15,2742.65,2967.79,349.80,351.70,18.02,0000 0000 0000 0000 000000
2014-11-20 00:36:42,0.11,2.16,0.00,21.26,25.60,28.51,4.92,26.52,1022.55,2037.39,2641.78,2741.79,2966.88,349.71,351.49,18.05,0000 0000 0000 0000 000000
2014-11-20 00:41:44,0.08,2.16,0.00,21.27,25.60,28.56,4.83,26.46,1022.55,2037.17,2640.49,2740.93,2965.98,349.79,351.58,18.08,0000 0000 0000 0000 000000
2014-11-20 00:46:45,0.17,2.17,0.00,21.26,25.60,28.53,4.79,26.51,1022.55,2037.38,2639.41,2740.06,2965.08,349.70,351.55,18.11,0000 0000 0000 0000 000000
2014-11-20 00:51:47,0.15,2.17,0.00,21.25,25.60,28.54,4.88,26.46,1022.52,2037.49,2638.14,2739.18,2964.12,350.06,351.72,18.14,0000 0000 0000 0000 000000
2014-11-20 00:56:48,0.16,2.18,0.00,21.28,25.60,28.55,4.89,26.51,1022.49,2037.72,2636.82,2738.31,2963.30,349.41,351.14,18.17,0000 0000 0000 0000 000000
2014-11-20 01:01:49,0.13,2.18,0.00,21.28,25.60,28.54,4.76,26.47,1022.49,2037.77,2635.65,2737.49,2962.38,349.58,351.30,18.20,0000 0000 0000 0000 000000
2014-11-20 01:06:50,0.12,2.18,0.00,21.29,25.60,28.57,4.85,26.42,1022.51,2037.80,2634.40,2736.59,2961.35,349.73,351.41,18.23,0000 0000 0000 0000 000000
2014-11-20 01:11:51,0.12,2.19,0.00,21.29,25.60,28.58,4.87,26.27,1022.49,2037.73,2633.07,2735.64,2960.37,350.74,352.66,18.25,0000 0000 0000 0000 000000
2014-11-20 01:16:53,0.09,2.19,0.00,21.27,25.60,28.58,4.87,26.57,1022.49,2037.53,2631.83,2734.76,2959.24,350.11,351.85,18.28,0000 0000 0000 0000 000000
2014-11-20 01:21:54,0.11,2.19,0.00,21.28,25.60,28.57,4.86,26.49,1022.48,2037.51,2630.58,2733.83,2958.35,349.66,351.30,18.31,0000 0000 0000 0000 000000
2014-11-20 01:26:55,0.13,2.20,0.00,21.28,25.60,28.57,4.89,26.43,1022.49,2037.50,2629.27,2732.92,2957.36,350.38,352.17,18.34,0000 0000 0000 0000 000000
2014-11-20 01:31:56,0.14,2.20,0.00,21.30,25.60,28.58,4.85,26.51,1022.49,2037.52,2627.87,2731.99,2956.38,350.26,351.94,18.37,0000 0000 0000 0000 000000
2014-11-20 01:36:57,0.12,2.21,0.00,21.29,25.60,28.57,4.87,26.54,1022.48,2037.47,2626.54,2730.97,2955.29,350.00,351.58,18.40,0000 0000 0000 0000 000000
2014-11-20 01:41:59,0.13,2.21,0.00,21.29,25.60,28.55,4.87,26.55,1022.48,2037.15,2625.06,2729.84,2953.88,350.04,351.54,18.43,0000 0000 0000 0000 000000
2014-11-20 01:47:00,0.19,2.21,0.00,21.28,25.60,28.55,4.83,26.51,1022.45,2037.15,2623.45,2728.60,2952.55,349.35,351.19,18.46,0000 0000 0000 0000 000000
2014-11-20 01:52:01,0.17,2.22,0.00,21.29,25.60,28.54,4.83,26.50,1022.44,2037.14,2621.70,2727.39,2951.22,349.93,351.51,18.49,0000 0000 0000 0000 000000
2014-11-20 01:57:02,0.20,2.23,0.00,21.29,25.60,28.52,4.83,26.49,1022.28,2037.20,2619.89,2726.04,2949.87,349.91,351.45,18.52,0000 0000 0000 0000 000000
2014-11-20 02:02:03,0.20,2.23,0.00,21.29,25.60,28.57,4.84,26.32,1022.18,2037.35,2618.16,2724.83,2948.54,350.20,351.82,18.55,0000 0000 0000 0000 000000
2014-11-20 02:07:05,0.14,2.24,0.00,21.29,25.60,28.54,4.84,26.45,1022.33,2037.19,2616.35,2723.54,2947.24,349.68,351.45,18.58,0000 0000 0000 0000 000000
2014-11-20 02:12:06,0.17,2.24,0.00,21.29,25.60,28.55,4.79,26.48,1022.41,2037.16,2614.53,2722.37,2945.97,350.03,351.90,18.61,0000 0000 0000 0000 000000
2014-11-20 02:17:07,0.25,2.25,0.00,21.30,25.60,28.60,4.95,26.39,1022.39,2037.44,2612.75,2721.19,2944.73,350.72,352.43,18.64,0000 0000 0000 0000 000000
2014-11-20 02:22:08,0.12,2.25,0.00,21.29,25.60,28.55,4.83,26.43,1022.34,2037.32,2611.02,2719.93,2943.48,349.74,351.46,18.66,0000 0000 0000 0000 000000
2014-11-20 02:27:09,0.24,2.26,0.00,21.28,25.60,28.55,4.86,26.44,1022.32,2037.42,2609.12,2718.55,2942.02,349.87,351.55,18.69,0000 0000 0000 0000 000000
2014-11-20 02:32:11,8.67,2.41,0.00,21.29,25.60,28.57,4.84,26.54,1022.38,2037.19,2546.52,2672.56,2894.27,350.05,351.90,18.72,0000 0000 0000 0000 000000
2014-11-20 02:37:12,0.93,2.54,0.00,21.31,25.60,28.54,4.80,26.55,1022.45,2037.03,2520.80,2653.93,2875.04,350.31,352.05,18.75,0000 0000 0000 0000 000000
2014-11-20 02:42:13,0.26,2.55,0.00,21.29,25.59,28.53,4.94,26.48,1022.48,2037.01,2517.82,2651.86,2872.77,350.33,352.15,18.78,0000 0000 0000 0000 000000
2014-11-20 02:47:14,0.20,2.55,0.00,21.29,25.59,28.50,4.80,26.44,1022.46,2037.02,2516.06,2650.56,2871.35,349.61,351.30,18.81,0000 0000 0000 0000 000000
2014-11-20 02:52:16,0.19,2.56,0.00,21.31,25.59,28.55,4.91,26.57,1022.47,2037.01,2514.20,2649.30,2869.88,350.25,351.78,18.84,0000 0000 0000 0000 000000
2014-11-20 02:57:17,0.19,2.57,0.40,21.30,25.59,28.53,4.81,26.40,1022.48,2037.03,2512.36,2648.01,2868.60,349.53,351.41,18.87,0000 0000 0000 0000 000000
2014-11-20 03:02:18,0.20,2.57,2.00,21.29,25.59,28.57,4.87,26.59,1022.47,2037.05,2510.66,2646.75,2867.32,349.83,351.41,18.90,0000 0000 0000 0000 000000
2014-11-20 03:07:20,0.17,2.58,2.00,21.31,25.59,28.56,4.80,26.51,1022.46,2037.05,2509.08,2645.63,2865.92,349.54,351.33,18.93,0000 0000 0000 0000 000000
2014-11-20 03:12:21,0.17,2.58,2.00,21.29,25.59,28.51,4.86,26.53,1022.45,2037.03,2507.51,2644.46,2864.69,350.13,351.75,18.96,0000 0000 0000 0000 000000
2014-11-20 03:17:22,0.17,2.59,2.00,21.31,25.59,28.51,4.87,26.48,1022.43,2037.02,2505.84,2643.39,2863.56,350.05,351.74,18.99,0000 0000 0000 0000 000000
2014-11-20 03:22:23,0.16,2.59,2.00,21.31,25.59,28.54,4.86,26.48,1022.18,2037.04,2504.22,2642.20,2862.40,350.58,352.09,19.02,0000 0000 0000 0000 000000
2014-11-20 03:27:25,0.20,2.60,1.53,21.28,25.58,28.57,4.84,26.52,1022.15,2037.03,2502.55,2641.02,2861.08,350.15,351.63,19.05,0000 0000 0000 0000 000000
2014-11-20 03:32:26,0.16,2.60,0.00,21.26,25.58,28.54,4.87,26.56,1022.28,2037.04,2501.03,2639.88,2859.75,350.32,351.90,19.07,0000 0000 0000 0000 000000
2014-11-20 03:37:27,0.19,2.61,0.00,21.26,25.58,28.53,4.85,26.57,1022.45,2037.04,2499.55,2638.80,2858.56,350.12,351.96,19.10,0000 0000 0000 0000 000000
2014-11-20 03:42:28,0.16,2.61,0.00,21.30,25.57,28.54,4.93,26.65,1022.46,2037.02,2497.89,2637.75,2857.44,350.79,352.22,19.13,0000 0000 0000 0000 000000
2014-11-20 03:47:30,0.15,2.62,0.00,21.32,25.57,28.50,4.82,26.35,1022.43,2037.04,2496.52,2636.81,2856.55,350.12,351.83,19.16,0000 0000 0000 0000 000000
2014-11-20 03:52:31,0.15,2.62,0.00,21.34,25.58,28.43,4.81,26.41,1022.45,2037.03,2495.18,2635.78,2855.42,350.24,351.79,19.19,0000 0000 0000 0000 000000
2014-11-20 03:57:33,0.27,2.63,0.00,21.36,25.58,28.50,4.83,26.48,1022.47,2037.02,2491.75,2633.71,2853.24,350.08,351.71,19.22,0000 0000 0000 0000 000000
2014-11-20 04:02:34,4.84,2.73,0.00,21.38,25.58,28.44,4.92,26.63,1022.48,2037.03,2452.06,2610.53,2828.77,349.80,351.39,19.25,0000 0000 0000 0000 000000
2014-11-20 04:07:36,0.41,2.78,0.00,21.34,25.59,28.47,4.83,26.63,1022.47,2037.04,2440.63,2603.70,2821.59,349.83,351.83,19.28,0000 0000 0000 0000 000000
2014-11-20 04:12:37,0.20,2.79,0.00,21.37,25.60,28.47,4.89,26.43,1022.46,2037.01,2438.56,2602.29,2819.91,350.15,351.67,19.31,0000 0000 0000 0000 000000
2014-11-20 04:17:38,0.19,2.80,0.00,21.38,25.60,28.46,4.83,26.56,1022.46,2037.00,2436.75,2601.02,2818.60,350.17,351.76,19.34,0000 0000 0000 0000 000000
2014-11-20 04:22:40,0.16,2.80,0.00,21.34,25.60,28.49,4.84,26.46,1022.47,2037.00,2435.20,2599.93,2817.50,350.09,351.91,19.37,0000 0000 0000 0000 000000
2014-11-20 04:27:41,0.20,2.81,0.30,21.31,25.60,28.50,4.83,26.49,1022.47,2037.00,2433.55,2598.78,2816.31,350.10,351.92,19.40,0000 0000 0000 0000 000000
2014-11-20 04:32:42,0.23,2.81,1.00,21.33,25.60,28.47,4.81,26.69,1022.48,2037.00,2431.58,2597.40,2814.81,349.47,351.27,19.43,0000 0000 0000 0000 000000
2014-11-20 04:37:44,0.23,2.82,1.00,21.27,25.60,28.55,4.89,26.64,1022.48,2037.00,2429.41,2595.82,2813.09,350.28,352.02,19.46,0000 0000 0000 0000 000000
2014-11-20 04:42:45,0.12,2.83,1.00,21.26,25.60,28.58,4.77,26.35,1022.47,2037.00,2427.98,2594.87,2812.06,349.97,351.78,19.48,0000 0000 0000 0000 000000
2014-11-20 04:47:46,0.15,2.83,1.00,21.29,25.60,28.58,4.84,26.38,1022.48,2037.00,2426.79,2593.95,2811.10,349.34,351.21,19.51,0000 0000 0000 0000 000000
2014-11-20 04:52:47,0.14,2.83,1.00,21.31,25.60,28.53,4.79,26.38,1022.48,2037.00,2425.51,2593.03,2810.03,350.09,351.71,19.54,0000 0000 0000 0000 000000
2014-11-20 04:57:48,0.14,2.84,0.70,21.32,25.60,28.53,4.89,26.56,1022.48,2037.00,2424.21,2592.10,2809.02,350.75,352.40,19.57,0000 0000 0000 0000 000000
2014-11-20 05:02:50,0.16,2.84,0.00,21.33,25.59,28.56,4.88,26.62,1022.47,2037.00,2422.81,2591.15,2808.07,350.21,351.88,19.60,0000 0000 0000 0000 000000
2014-11-20 05:07:50,0.15,2.85,0.00,21.35,25.59,28.55,4.83,26.38,1022.47,2037.00,2421.50,2590.24,2807.17,350.46,352.19,19.63,0000 0000 0000 0000 000000
2014-11-20 05:12:51,0.14,2.85,0.00,21.35,25.59,28.49,4.82,26.51,1022.47,2037.00,2420.20,2589.36,2806.30,349.71,351.41,19.66,0000 0000 0000 0000 000000
2014-11-20 05:17:53,0.14,2.86,0.00,21.36,25.58,28.47,4.77,26.40,1022.47,2037.01,2418.93,2588.49,2805.29,349.63,351.25,19.69,0000 0000 0000 0000 000000
2014-11-20 05:22:54,0.17,2.86,0.00,21.37,25.58,28.47,4.80,26.48,1022.48,2037.00,2417.43,2587.44,2804.14,349.64,351.24,19.72,0000 0000 0000 0000 000000
2014-11-20 05:27:56,0.17,2.87,0.00,21.38,25.59,28.45,4.86,26.47,1022.49,2037.00,2415.91,2586.25,2802.90,350.02,351.54,19.75,0000 0000 0000 0000 000000
2014-11-20 05:32:57,0.18,2.87,0.00,21.40,25.59,28.45,4.86,26.46,1022.48,2037.00,2414.38,2585.14,2801.74,350.09,351.49,19.78,0000 0000 0000 0000 000000
2014-11-20 05:37:58,0.16,2.88,0.00,21.42,25.59,28.47,4.79,26.59,1022.48,2037.00,2412.96,2584.11,2800.61,349.33,350.89,19.81,0000 0000 0000 0000 000000
2014-11-20 05:42:59,0.16,2.88,0.00,21.46,25.59,28.44,4.79,26.42,1022.48,2037.00,2411.66,2583.16,2799.58,349.98,351.56,19.84,0000 0000 0000 0000 000000
2014-11-20 05:48:01,0.15,2.88,0.00,21.46,25.60,28.44,4.75,26.32,1022.48,2037.00,2410.36,2582.26,2798.55,349.46,351.15,19.87,0000 0000 0000 0000 000000
2014-11-20 05:53:02,0.15,2.89,0.00,21.45,25.60,28.45,4.83,26.40,1022.48,2037.00,2408.86,2581.31,2797.69,349.89,351.18,19.89,0000 0000 0000 0000 000000
2014-11-20 05:58:03,0.15,2.89,0.00,21.43,25.60,28.40,4.83,26.51,1022.48,2037.00,2407.73,2580.40,2796.63,349.86,351.28,19.92,0000 0000 0000 0000 000000
2014-11-20 06:03:05,0.15,2.90,0.00,21.37,25.60,28.51,4.86,26.43,1022.48,2037.00,2406.44,2579.48,2795.63,349.87,351.42,19.95,0000 0000 0000 0000 000000
2014-11-20 06:08:05,0.16,2.90,0.00,21.42,25.60,28.53,4.85,26.49,1022.48,2037.00,2404.96,2578.48,2794.60,349.99,351.47,19.98,0000 0000 0000 0000 000000
2014-11-20 06:13:07,0.15,2.91,0.00,21.45,25.61,28.48,4.87,26.52,1022.48,2037.00,2403.57,2577.54,2793.63,349.77,351.35,20.01,0000 0000 0000 0000 000000
2014-11-20 06:18:08,0.14,2.91,0.00,21.48,25.61,28.44,4.84,26.43,1022.48,2037.00,2402.49,2576.60,2792.49,349.98,351.42,20.04,0000 0000 0000 0000 000000
2014-11-20 06:23:10,0.12,2.92,0.00,21.53,25.62,28.36,4.84,26.50,1022.48,2037.00,2401.24,2575.75,2791.65,349.59,351.12,20.07,0000 0000 0000 0000 000000
2014-11-20 06:28:11,0.11,2.92,0.00,21.57,25.62,28.35,4.86,26.47,1022.49,2037.00,2400.08,2574.92,2790.69,350.22,351.53,20.10,0000 0000 0000 0000 000000
2014-11-20 06:33:12,0.14,2.92,0.00,21.59,25.62,28.32,4.81,26.59,1022.52,2037.02,2398.83,2574.05,2789.89,350.15,351.57,20.13,0000 0000 0000 0000 000000
2014-11-20 06:38:14,0.16,2.93,0.00,21.63,25.62,28.29,4.84,26.52,1022.58,2037.00,2397.57,2573.15,2788.86,349.70,350.91,20.16,0000 0000 0000 0000 000000
2014-11-20 06:43:15,0.15,2.93,0.00,21.64,25.64,28.30,4.80,26.48,1022.57,2037.00,2396.38,2572.17,2787.81,349.91,351.20,20.19,0000 0000 0000 0000 000000
2014-11-20 06:48:16,0.14,2.94,0.00,21.68,25.65,28.31,4.80,26.40,1022.50,2037.00,2395.05,2571.25,2786.86,349.87,351.14,20.22,0000 0000 0000 0000 000000
2014-11-20 06:53:17,0.16,2.94,0.00,21.73,25.66,28.29,4.80,26.52,1022.50,2037.00,2393.68,2570.36,2785.92,350.06,351.40,20.25,0000 0000 0000 0000 000000
2014-11-20 06:58:18,0.12,2.95,0.00,21.78,25.67,28.30,4.90,26.62,1022.54,2037.00,2392.76,2569.53,2784.94,350.20,351.36,20.27,0000 0000 0000 0000 000000
2014-11-20 07:03:19,0.15,2.95,0.00,21.82,25.70,28.32,4.84,26.48,1022.67,2037.00,2391.58,2568.57,2784.00,349.67,350.97,20.30,0000 0000 0000 0000 000000
2014-11-20 07:08:20,0.15,2.96,0.00,21.89,25.71,28.35,4.88,26.47,1022.79,2036.98,2390.30,2567.64,2782.92,350.84,351.72,20.33,0000 0000 0000 0000 000000
2014-11-20 07:13:22,0.12,2.96,0.00,21.91,25.73,28.37,4.84,26.46,1022.90,2036.97,2389.27,2566.79,2781.81,350.08,351.02,20.36,0000 0000 0000 0000 000000
2014-11-20 07:18:23,0.11,2.96,0.00,21.95,25.75,28.39,4.78,26.53,1022.94,2036.93,2388.20,2565.92,2780.89,350.34,351.38,20.39,0000 0000 0000 0000 000000
2014-11-20 07:23:25,0.08,2.97,0.00,21.99,25.77,28.40,4.78,26.48,1022.96,2036.73,2387.10,2565.06,2779.92,350.03,351.07,20.42,0000 0000 0000 0000 000000
2014-11-20 07:28:26,0.11,2.97,0.00,22.01,25.80,28.43,4.83,26.60,1022.96,2036.45,2385.93,2564.15,2778.98,349.82,350.92,20.45,0000 0000 0000 0000 000000
2014-11-20 07:33:27,0.10,2.97,0.00,22.05,25.82,28.47,4.72,26.49,1022.95,2036.10,2384.64,2563.24,2778.01,348.86,349.67,20.48,0000 0000 0000 0000 000000
2014-11-20 07:38:29,0.14,2.98,0.00,22.07,25.84,28.48,4.89,26.56,1022.94,2036.03,2383.50,2562.32,2776.96,350.34,351.33,20.51,0000 0000 0000 0000 000000
2014-11-20 07:43:30,0.13,2.98,0.00,22.10,25.86,28.52,4.77,26.38,1022.94,2036.00,2382.42,2561.49,2776.04,349.63,350.53,20.54,0000 0000 0000 0000 000000
2014-11-20 07:48:31,0.10,2.98,0.00,22.15,25.89,28.54,4.83,26.38,1022.94,2036.01,2381.48,2560.80,2775.32,350.15,351.15,20.57,0000 0000 0000 0000 000000
2014-11-20 07:53:32,0.13,2.99,0.00,22.20,25.91,28.56,4.83,26.42,1022.79,2036.00,2380.34,2559.95,2774.39,350.38,351.14,20.60,0000 0000 0000 0000 000000
2014-11-20 07:58:33,0.13,2.99,0.00,22.23,25.94,28.59,4.83,26.53,1022.63,2036.00,2379.29,2559.08,2773.57,349.83,350.50,20.63,0000 0000 0000 0000 000000
2014-11-20 08:03:34,0.12,2.99,0.00,22.28,25.96,28.62,4.88,26.48,1022.51,2035.98,2378.25,2558.57,2772.74,350.58,351.16,20.66,0000 0000 0000 0000 000000
2014-11-20 08:08:35,0.07,3.00,0.00,22.28,25.99,28.64,4.84,26.41,1022.51,2035.98,2377.31,2557.91,2771.91,349.77,350.35,20.69,0000 0000 0000 0000 000000
2014-11-20 08:13:37,0.13,3.00,0.00,22.26,26.01,28.67,4.85,26.38,1022.56,2035.97,2376.40,2557.05,2771.03,350.03,350.43,20.71,0000 0000 0000 0000 000000
2014-11-20 08:18:38,0.13,3.00,0.00,22.28,26.04,28.72,4.89,26.55,1022.54,2035.90,2375.40,2556.22,2770.14,350.02,350.60,20.74,0000 0000 0000 0000 000000
2014-11-20 08:23:39,0.02,3.00,0.00,22.30,26.06,28.75,4.80,26.38,1022.60,2035.35,2374.36,2555.50,2769.31,349.97,350.66,20.77,0000 0000 0000 0000 000000
2014-11-20 08:28:40,0.07,3.01,0.00,22.32,26.09,28.76,4.79,26.43,1022.79,2035.17,2373.44,2554.86,2768.53,349.58,350.22,20.80,0000 0000 0000 0000 000000
2014-11-20 08:33:42,0.10,3.01,0.00,22.34,26.11,28.77,4.90,26.52,1022.59,2035.04,2372.49,2553.97,2767.68,350.13,350.36,20.83,0000 0000 0000 0000 000000
2014-11-20 08:38:43,0.13,3.01,0.00,22.35,26.13,28.79,4.93,26.59,1022.52,2035.00,2371.39,2553.11,2766.74,350.78,351.27,20.86,0000 0000 0000 0000 000000
2014-11-20 08:43:44,0.12,3.02,0.00,22.38,26.16,28.81,4.81,26.33,1022.58,2035.00,2370.48,2552.33,2765.95,350.14,350.51,20.89,0000 0000 0000 0000 000000
2014-11-20 08:48:46,0.12,3.02,0.00,22.39,26.18,28.85,4.83,26.43,1022.63,2035.00,2369.53,2551.70,2765.10,350.07,350.62,20.92,0000 0000 0000 0000 000000
2014-11-20 08:53:47,0.09,3.02,0.00,22.39,26.21,28.86,4.79,26.47,1022.63,2034.98,2368.73,2551.00,2764.23,350.17,350.56,20.95,0000 0000 0000 0000 000000
2014-11-20 08:58:48,0.13,3.03,0.00,22.41,26.22,28.89,4.79,26.51,1022.79,2034.95,2367.73,2550.16,2763.48,350.24,350.83,20.98,0000 0000 0000 0000 000000
2014-11-20 09:03:49,0.06,3.03,0.00,22.42,26.25,28.91,4.84,26.36,1022.81,2034.78,2366.91,2549.45,2762.69,350.29,350.87,21.01,0000 0000 0000 0000 000000
2014-11-20 09:08:50,0.04,3.03,0.00,22.43,26.27,28.93,4.81,26.41,1022.77,2034.43,2366.03,2548.74,2761.91,350.05,350.40,21.04,0000 0000 0000 0000 000000
2014-11-20 09:13:52,0.08,3.03,0.00,22.45,26.30,28.94,4.82,26.47,1022.87,2034.28,2365.13,2548.02,2761.07,350.15,350.66,21.07,0000 0000 0000 0000 000000
2014-11-20 09:18:53,0.11,3.04,0.00,22.44,26.31,28.98,4.83,26.43,1022.94,2034.06,2364.23,2547.21,2760.19,349.53,349.95,21.09,0000 0000 0000 0000 000000
2014-11-20 09:23:55,0.11,3.04,0.00,22.45,26.33,28.99,4.78,26.46,1022.92,2034.03,2363.54,2546.66,2759.56,350.10,350.58,21.12,0000 0000 0000 0000 000000
2014-11-20 09:28:56,0.09,3.04,0.00,22.48,26.35,29.01,4.76,26.35,1022.90,2034.00,2362.59,2545.96,2758.73,350.17,350.60,21.15,0000 0000 0000 0000 000000
2014-11-20 09:33:57,0.10,3.05,0.00,22.49,26.37,29.03,4.80,26.43,1022.91,2034.00,2361.76,2545.16,2757.97,349.91,350.37,21.18,0000 0000 0000 0000 000000
2014-11-20 09:38:58,0.15,3.05,0.00,22.48,26.40,29.06,4.81,26.48,1022.91,2033.99,2360.65,2544.47,2757.11,350.29,350.85,21.21,0000 0000 0000 0000 000000
2014-11-20 09:44:00,0.09,3.05,0.00,22.49,26.41,29.08,4.83,26.48,1022.94,2033.99,2359.68,2543.83,2756.41,349.87,350.59,21.24,0000 0000 0000 0000 000000
2014-11-20 09:49:01,0.12,3.06,0.00,22.51,26.43,29.10,4.77,26.60,1022.95,2033.98,2358.65,2543.01,2755.63,349.87,350.39,21.27,0000 0000 0000 0000 000000
2014-11-20 09:54:02,0.12,3.06,0.00,22.53,26.45,29.12,4.79,26.38,1022.96,2033.98,2357.73,2542.15,2754.85,349.87,350.29,21.30,0000 0000 0000 0000 000000
2014-11-20 09:59:03,0.12,3.06,0.00,22.53,26.47,29.15,4.78,26.41,1022.96,2033.98,2356.84,2541.49,2753.98,350.10,350.30,21.33,0000 0000 0000 0000 000000
2014-11-20 10:04:05,0.08,3.07,0.00,22.54,26.48,29.15,4.84,26.46,1022.96,2033.84,2355.85,2540.77,2753.09,350.26,350.60,21.36,0000 0000 0000 0000 000000
2014-11-20 10:09:06,0.04,3.07,0.00,22.55,26.50,29.17,4.87,26.51,1022.96,2033.60,2354.91,2540.01,2752.29,349.95,350.32,21.39,0000 0000 0000 0000 000000
2014-11-20 10:14:07,0.08,3.07,0.00,22.54,26.51,29.18,4.86,26.61,1022.96,2033.21,2353.95,2539.18,2751.51,350.12,350.61,21.42,0000 0000 0000 0000 000000
2014-11-20 10:19:08,0.09,3.07,0.00,22.54,26.53,29.20,4.82,26.41,1022.96,2033.09,2353.04,2538.45,2750.89,349.73,350.31,21.45,0000 0000 0000 0000 000000
2014-11-20 10:24:10,0.10,3.08,0.00,22.56,26.55,29.21,4.81,26.48,1022.96,2033.03,2352.12,2537.74,2750.06,350.12,350.52,21.48,0000 0000 0000 0000 000000
2014-11-20 10:29:11,0.11,3.08,0.00,22.57,26.56,29.23,4.84,26.42,1022.96,2033.01,2351.15,2537.02,2749.20,350.19,350.38,21.50,0000 0000 0000 0000 000000
2014-11-20 10:34:12,0.14,3.08,0.00,22.56,26.57,29.28,4.75,26.51,1022.96,2033.00,2350.12,2536.16,2748.36,349.48,349.82,21.53,0000 0000 0000 0000 000000
2014-11-20 10:39:14,0.13,3.09,0.00,22.57,26.58,29.28,4.81,26.43,1022.96,2033.00,2349.14,2535.42,2747.55,350.35,350.72,21.56,0000 0000 0000 0000 000000
2014-11-20 10:44:14,0.06,3.09,0.00,22.60,26.60,29.28,4.82,26.47,1022.96,2033.00,2348.43,2534.93,2746.88,350.09,350.39,21.59,0000 0000 0000 0000 000000
2014-11-20 10:49:16,0.13,3.09,0.00,22.59,26.61,29.29,4.89,26.58,1022.96,2033.00,2347.53,2534.09,2746.03,350.47,350.71,21.62,0000 0000 0000 0000 000000
2014-11-20 10:54:17,0.14,3.10,0.00,22.61,26.62,29.33,4.79,26.43,1022.96,2033.00,2346.43,2533.26,2745.20,349.76,349.99,21.65,0000 0000 0000 0000 000000
2014-11-20 10:59:18,0.08,3.10,0.00,22.62,26.64,29.34,4.82,26.38,1022.96,2032.99,2345.85,2532.73,2744.37,350.04,350.36,21.68,0000 0000 0000 0000 000000
2014-11-20 11:04:20,0.11,3.10,0.00,22.62,26.65,29.36,4.81,26.42,1022.96,2032.95,2344.74,2531.94,2743.68,350.17,350.53,21.71,0000 0000 0000 0000 000000
2014-11-20 11:09:21,0.10,3.11,0.00,22.65,26.67,29.37,4.80,26.29,1022.96,2032.86,2343.76,2531.11,2742.86,350.09,350.55,21.74,0000 0000 0000 0000 000000
2014-11-20 11:14:22,0.11,3.11,0.00,22.64,26.67,29.36,4.84,26.52,1022.96,2032.70,2342.80,2530.40,2742.04,350.03,350.16,21.77,0000 0000 0000 0000 000000
2014-11-20 11:19:23,0.08,3.11,0.00,22.64,26.70,29.38,4.86,26.43,1022.97,2032.52,2341.88,2529.76,2741.25,349.90,350.07,21.80,0000 0000 0000 0000 000000
2014-11-20 11:24:25,0.09,3.12,0.00,22.67,26.70,29.40,4.87,26.55,1022.96,2032.38,2340.86,2529.00,2740.54,350.19,350.40,21.83,0000 0000 0000 0000 000000
2014-11-20 11:29:26,0.10,3.12,0.00,22.67,26.72,29.43,4.80,26.45,1022.96,2032.26,2339.88,2528.17,2739.77,350.02,350.14,21.86,0000 0000 0000 0000 000000
2014-11-20 11:34:27,0.10,3.12,0.00,22.65,26.72,29.45,4.72,26.48,1022.92,2032.13,2338.89,2527.57,2738.94,349.72,350.05,21.89,0000 0000 0000 0000 000000
2014-11-20 11:39:28,0.14,3.12,0.00,22.70,26.74,29.45,4.88,26.44,1022.93,2032.03,2337.85,2526.57,2738.03,350.02,350.11,21.92,0000 0000 0000 0000 000000
2014-11-20 11:44:30,0.08,3.13,0.00,22.70,26.75,29.45,4.73,26.49,1022.92,2032.02,2337.01,2525.93,2737.16,350.14,350.32,21.94,0000 0000 0000 0000 000000
2014-11-20 11:49:31,0.13,3.13,0.00,22.71,26.76,29.46,4.84,26.57,1022.91,2032.01,2336.11,2525.08,2736.31,350.18,350.33,21.97,0000 0000 0000 0000 000000
2014-11-20 11:54:32,0.13,3.13,0.00,22.71,26.77,29.46,4.83,26.43,1022.92,2032.00,2335.18,2524.42,2735.60,350.43,350.55,22.00,0000 0000 0000 0000 000000
2014-11-20 11:59:33,0.08,3.14,0.00,22.72,26.79,29.50,4.85,26.50,1022.94,2032.00,2334.31,2523.82,2734.93,349.98,350.16,22.03,0000 0000 0000 0000 000000
2014-11-20 12:04:34,0.12,3.14,0.00,22.73,26.80,29.50,4.84,26.58,1022.96,2032.00,2333.23,2523.02,2734.10,350.05,350.22,22.06,0000 0000 0000 0000 000000
2014-11-20 12:09:35,0.14,3.15,0.00,22.75,26.81,29.55,4.85,26.43,1022.96,2032.00,2332.16,2522.17,2733.31,350.50,350.76,22.09,0000 0000 0000 0000 000000
2014-11-20 12:14:37,0.14,3.15,0.00,22.73,26.82,29.53,4.82,26.52,1022.96,2032.00,2331.25,2521.41,2732.44,350.22,350.49,22.12,0000 0000 0000 0000 000000
2014-11-20 12:19:38,0.10,3.15,0.00,22.75,26.83,29.53,4.79,26.38,1022.93,2032.00,2330.39,2520.76,2731.70,349.86,350.01,22.15,0000 0000 0000 0000 000000
2014-11-20 12:24:40,0.10,3.16,0.00,22.75,26.85,29.54,4.76,26.49,1022.96,2031.99,2329.37,2520.00,2730.87,349.88,350.23,22.18,0000 0000 0000 0000 000000
2014-11-20 12:29:40,0.13,3.16,0.00,22.79,26.85,29.54,4.77,26.38,1022.96,2031.99,2328.44,2519.25,2730.06,350.01,350.12,22.21,0000 0000 0000 0000 000000
2014-11-20 12:34:42,0.13,3.16,0.00,22.78,26.87,29.56,4.88,26.43,1022.96,2031.99,2327.55,2518.50,2729.24,350.58,350.84,22.24,0000 0000 0000 0000 000000
2014-11-20 12:39:43,0.11,3.17,0.00,22.80,26.87,29.56,4.85,26.61,1022.96,2031.97,2326.45,2517.82,2728.39,350.16,350.26,22.27,0000 0000 0000 0000 000000
2014-11-20 12:44:44,0.10,3.17,0.00,22.82,26.89,29.60,4.81,26.31,1022.96,2031.98,2325.68,2517.06,2727.77,350.18,350.22,22.30,0000 0000 0000 0000 000000
2014-11-20 12:49:45,0.11,3.17,0.00,22.83,26.90,29.59,4.79,26.43,1022.95,2031.94,2324.86,2516.32,2726.93,350.10,350.07,22.32,0000 0000 0000 0000 000000
2014-11-20 12:54:46,0.10,3.18,0.00,22.82,26.91,29.61,4.84,26.57,1022.91,2031.82,2323.86,2515.65,2726.09,350.19,350.29,22.35,0000 0000 0000 0000 000000
2014-11-20 12:59:48,0.08,3.18,0.00,22.81,26.92,29.64,4.80,26.49,1022.90,2031.65,2322.84,2514.91,2725.26,349.76,349.82,22.38,0000 0000 0000 0000 000000